Home   Weather   Bolzano   Past weeks

Flag for Italy Past Weather in Bolzano, Italy — Yesterday and Last 2 Weeks

Now
45 °F

Sunny.


Feels Like: 45 °F
Forecast: 28 / 47 °F
Wind: No wind

Location: Bolzano

Current Time: Jan 22, 2018 at 1:39:55 pm

Latest Report: Jan 22, 2018 at 12:50 pm


Visibility: 10 mi

Pressure: 30.01 "Hg

Humidity: 49%

Dew Point: 27 °F

Location of BolzanoLocation

Past Weather in Bolzano — Graph

°F

Bolzano Temperature Yesterday

Maximum temperature yesterday: 46 °F (at 3:50 pm)
Minimum temperature yesterday: 32 °F (at 6:50 am)
Average temperature yesterday: 39 °F

High & Low Weather Summary for the Past Weeks

 TemperatureHumidityPressure
High50 °F (Jan 12, 12:50 pm)100% (Jan 7, 11:50 am)30.33 "Hg (Jan 7, 11:50 am)
Low25 °F (Jan 13, 7:50 am)32% (Jan 21, 4:50 pm)29.47 "Hg (Jan 17, 6:50 am)
Average37 °F80%30.01 "Hg
* Reported Jan 7 11:50 am — Jan 22 11:50 am, Bolzano. Weather by CustomWeather, © 2018

Note: Actual official high and low records may vary slightly from our data, if they occured in-between our weather recording intervals... More about our weather records

Advertising

Bolzano Weather History for the Previous 24 Hours

Scroll right to see more
 ConditionsComfort  
Time TempWeatherWind HumidityBarometerVisibility
11:50 am
Mon, Jan 22
43 °FPassing clouds.1 mph53%30.04 "HgN/A
10:50 am39 °FPassing clouds.No wind65%30.07 "HgN/A
9:50 am34 °FScattered clouds.1 mph75%30.07 "HgN/A
8:50 am30 °FScattered clouds.1 mph86%30.07 "HgN/A
7:50 am32 °FScattered clouds.1 mph80%30.04 "HgN/A
6:50 am34 °FPassing clouds.2 mph70%30.04 "HgN/A
10:50 pm
Sun, Jan 21
36 °FClear.6 mph56%29.98 "Hg10 mi
9:50 pm39 °FClear.7 mph42%29.95 "Hg10 mi
8:50 pm41 °FClear.9 mph42%29.98 "Hg10 mi
7:50 pm39 °FPassing clouds.8 mph52%29.98 "HgN/A
6:50 pm43 °FPassing clouds.8 mph39%29.95 "HgN/A
5:50 pm41 °FClear.8 mph45%29.95 "Hg10 mi
4:50 pm46 °FPassing clouds.6 mph32%29.92 "HgN/A
3:50 pm46 °FPassing clouds.7 mph53%29.89 "HgN/A
2:50 pm45 °FPassing clouds.8 mph66%29.83 "HgN/A
1:50 pm43 °FScattered clouds.5 mph71%29.80 "HgN/A
Weather by CustomWeather, © 2018

See weather overview